Location: Badlands Tank
(34.7185°N, 107.0376°W)
Time: 07:07:33
(UTC+00:00)

Cosmos 841 Rocket - Pass Details

Date: 23 November 2025
Orbit: 742 x 768 km, 74.0° (Epoch: 08 December)

Event Time Altitude Azimuth Distance (km) Brightness Sun altitude
Rises 00:48:26 0° 348° (NNW) 3,242 6.7 -10.2°
Reaches altitude 10° 00:50:54 10° 354° (N) 2,311 5.9 -10.7°
Maximum altitude 00:55:59 50° 70° (ENE) 976 3.7 -11.7°
Drops below altitude 10° 01:01:02 10° 145° (SE) 2,290 5.8 -12.7°
Sets 01:03:27 0° 150° (SSE) 3,208 6.6 -13.2°
